Location: Cedar Brake
(32.2526°N, 97.8459°W)
Time: 20:35:12
(UTC+00:00)

SL-16 R/B - Pass Details

Date: 22 April 2026
Orbit: 841 x 845 km, 71.0° (Epoch: 21 May)

Event Time Altitude Azimuth Distance (km) Brightness Sun altitude
Rises 08:06:22 0° 350° (N) 3,406 5.9 -39.9°
Reaches altitude 10° 08:09:04 10° 360° (N) 2,468 5.1 -39.6°
Enters shadow 08:12:07 26° 26° (NNE) 1,605 4.1 -39.2°
